Theta_e
347 348 348 348 350 352 353 352 354 355 353 351 353 352 352 351 351 351 351 350 350 351 351 349 345 343 342 343 344 344 345 343 342 342 344 346 352 360 365 365 365 365 365 365 365 365 365 365 365 365 365 366 366 367 368 368 369 369 370 371 371 372 372 373 373 373 373 373 373 373 373 372 372 372 372 371 371 370 370 369 369 369 367 367 366
347 349 350 350 351 351 353 353 352 352 351 350 352 352 351 350 350 351 351 349 347 347 345 340 340 341 341 342 343 345 345 344 343 342 343 346 350 355 365 365 365 365 365 366 366 367 367 367 367 366 366 367 367 368 369 370 370 371 371 372 372 373 373 374 374 373 373 374 374 374 374 373 372 372 371 371 371 371 371 370 370 370 369 367 367
348 351 351 351 351 351 350 351 352 350 351 351 353 352 352 352 348 349 348 346 348 348 341 339 340 340 344 341 342 343 343 344 344 344 344 345 347 351 360 366 366 365 365 366 366 366 367 368 368 368 369 369 369 370 371 371 372 372 373 373 374 374 374 374 374 374 374 374 373 373 372 372 371 371 371 371 371 371 371 370 370 370 370 368 367
351 355 353 353 352 353 352 352 350 347 350 353 354 357 358 358 357 357 353 353 351 349 348 339 338 339 340 340 342 342 341 343 344 346 346 345 346 348 352 361 367 366 366 367 367 366 367 367 368 368 369 370 371 372 372 373 373 374 374 374 374 375 375 375 374 374 374 373 373 372 372 371 370 370 370 370 370 370 370 370 370 370 369 368 367
356 356 362 353 353 352 352 356 354 351 354 358 359 358 355 357 351 356 352 349 346 344 345 338 337 337 338 339 341 341 341 341 342 345 346 347 347 347 348 356 360 368 368 368 368 369 369 369 369 369 370 371 371 372 372 372 373 373 374 375 375 375 374 375 374 374 373 372 372 372 371 371 370 370 371 371 370 369 369 369 369 370 369 368 367
356 356 356 355 355 354 354 353 352 356 361 362 352 356 354 354 355 347 354 351 346 346 341 336 337 337 337 339 340 340 340 339 338 340 344 346 347 347 346 349 355 358 362 370 371 370 371 371 372 372 371 372 373 373 373 373 373 374 374 375 375 374 374 375 376 374 373 372 372 371 371 371 371 371 371 370 369 368 368 368 369 368 367 366 365
359 357 356 354 356 355 353 352 353 359 360 358 353 351 350 350 355 348 347 347 348 351 343 337 336 336 335 338 338 339 339 337 337 336 339 344 346 346 347 347 350 353 356 357 367 370 369 371 373 374 374 374 374 374 375 375 375 375 375 376 375 377 376 375 375 374 373 372 371 371 371 372 372 371 369 369 369 369 369 368 368 368 366 363 362
363 361 358 358 353 353 354 359 361 359 358 355 354 351 350 351 352 353 347 346 351 346 341 339 339 336 336 339 340 344 337 335 335 335 337 340 341 344 347 348 349 350 357 352 353 357 367 370 372 373 375 376 376 376 375 376 378 378 379 377 376 377 377 377 375 373 372 372 372 372 373 373 371 369 369 369 369 369 368 367 366 364 361 361 361
363 363 356 357 355 354 354 357 363 357 354 354 354 356 349 351 349 354 353 349 348 346 344 341 339 338 336 337 337 343 336 334 334 334 337 336 337 339 343 346 350 363 356 356 353 353 360 367 371 376 376 376 372 374 375 377 378 379 378 378 376 376 377 377 374 372 371 372 372 373 373 370 369 369 369 369 370 369 367 365 364 361 362 360 358
362 362 358 359 361 358 355 359 359 355 354 352 353 354 351 351 350 350 360 352 347 346 344 343 341 335 335 334 339 338 336 336 336 348 335 335 336 337 339 342 343 346 350 351 351 351 352 358 366 369 371 371 372 372 374 375 377 380 379 378 379 379 377 375 372 371 372 372 372 372 369 368 369 370 370 370 370 368 367 365 363 362 360 357 356
362 365 360 362 359 360 357 359 362 358 353 351 351 356 357 354 352 354 352 355 351 350 346 343 347 345 334 333 337 340 338 338 350 340 338 336 335 339 338 336 337 339 342 343 342 342 342 347 351 355 358 367 372 376 377 375 375 374 375 376 375 374 373 372 370 371 371 371 371 369 368 368 369 370 369 369 369 367 366 363 362 361 358 356 350
362 364 363 365 359 359 359 360 359 355 352 350 349 352 353 352 354 361 352 349 353 347 345 347 345 342 354 340 339 339 338 353 338 338 347 339 340 346 337 344 342 343 341 344 346 343 344 352 360 353 354 357 365 370 373 374 373 372 373 374 374 373 372 372 370 370 370 371 370 368 368 368 369 370 369 368 369 366 364 362 361 359 356 351 348
367 365 362 369 360 359 357 359 361 359 356 352 352 356 360 358 358 358 356 342 344 346 346 343 338 336 341 340 345 345 356 349 341 339 339 338 339 342 342 343 345 343 344 344 346 350 351 351 353 355 354 354 355 363 368 371 371 371 374 374 374 372 370 371 372 372 371 370 368 367 368 368 369 369 368 369 368 365 362 361 361 357 353 349 348
365 364 366 360 359 359 358 359 361 359 365 363 363 368 356 354 353 347 351 345 343 346 347 338 337 335 333 335 341 342 351 346 342 339 339 340 342 345 345 342 343 347 348 344 346 346 348 350 351 352 353 355 356 356 360 364 365 369 373 373 370 369 370 372 372 371 370 369 367 367 368 368 368 368 367 368 367 364 362 361 359 354 350 349 349
363 367 362 363 362 360 359 360 360 367 357 353 355 356 354 353 353 349 342 346 350 351 349 340 335 344 342 336 331 332 340 339 346 349 348 341 346 342 346 342 344 349 348 345 347 349 351 351 352 351 351 352 354 355 359 365 365 375 371 369 367 367 369 371 370 368 369 368 367 368 367 368 368 368 366 367 366 364 362 360 356 352 350 349 349
363 365 364 362 359 356 359 359 360 363 356 351 352 353 350 351 352 354 344 336 341 344 355 349 346 336 330 333 332 335 327 330 337 338 349 344 345 341 343 341 345 348 346 345 346 349 348 349 349 349 351 353 353 354 358 359 366 376 375 369 362 365 367 367 367 368 368 367 367 367 367 367 366 367 366 367 365 363 362 358 354 351 350 350 349
360 363 363 360 359 360 358 360 362 362 359 356 352 354 353 353 354 352 344 339 340 346 349 354 349 347 339 336 330 327 328 330 337 334 346 344 347 342 348 341 345 349 346 345 346 346 349 349 348 348 349 350 352 356 358 358 359 374 370 371 367 366 366 366 366 367 368 366 366 366 366 366 366 366 366 367 364 362 361 356 352 350 350 350 349
359 361 363 364 359 359 360 361 359 360 365 355 356 355 350 351 354 352 352 351 344 346 347 354 357 353 348 339 336 330 330 333 333 328 339 351 350 346 344 341 342 343 344 345 345 345 352 350 350 348 348 349 351 355 356 356 364 363 363 360 368 367 366 365 365 367 366 365 365 366 366 366 365 366 366 366 365 363 359 355 352 351 350 350 349
359 360 363 364 360 359 359 359 360 356 364 355 353 356 352 355 362 353 353 361 348 343 345 351 346 348 353 351 354 351 344 336 332 335 327 334 338 346 340 343 344 343 344 346 347 346 346 350 349 348 348 350 353 357 357 356 361 364 370 371 368 368 366 365 365 366 365 364 365 366 366 366 365 365 365 365 365 363 358 354 351 351 350 349 349
358 359 361 363 361 360 359 360 359 358 364 357 353 354 356 358 364 357 363 359 350 346 347 351 344 343 356 350 354 353 348 347 344 334 331 328 333 339 347 346 344 344 348 349 349 347 346 347 347 348 349 351 354 356 357 357 355 356 363 365 369 369 366 364 364 365 364 364 365 365 366 366 365 364 364 365 364 362 358 354 353 352 351 350 350
359 360 361 362 365 361 360 360 359 358 367 361 356 356 356 354 357 355 357 356 357 354 350 348 348 347 345 345 349 345 346 346 346 342 336 331 332 336 337 342 345 343 346 349 349 347 347 347 349 352 354 352 351 352 355 357 356 355 361 365 369 367 368 365 363 365 362 362 364 364 365 365 365 364 364 364 364 363 358 355 353 352 352 350 349
359 360 360 361 361 363 361 361 361 363 368 355 354 355 355 356 358 359 358 357 357 359 354 353 353 352 349 344 343 346 342 345 345 341 339 337 332 333 335 335 333 337 346 345 347 349 349 348 347 347 348 349 352 353 355 356 356 357 360 365 369 366 368 367 363 364 361 360 363 363 365 365 364 363 363 364 365 363 358 355 353 353 352 351 349
358 361 361 361 360 364 363 361 362 365 368 355 353 352 355 356 358 357 359 356 354 355 357 356 356 352 352 345 344 346 341 340 340 340 338 337 336 335 340 340 339 337 342 346 350 347 347 347 348 348 348 349 352 354 354 353 361 362 365 364 364 367 367 367 364 362 361 359 361 362 362 363 363 362 362 363 364 364 359 356 353 352 352 351 350
355 358 359 361 361 361 364 362 362 361 361 357 356 355 355 355 356 357 356 358 358 361 355 353 354 353 352 351 348 349 346 341 343 342 340 339 336 334 337 339 341 341 345 346 348 348 347 346 347 347 347 349 351 355 357 358 357 364 364 363 362 364 365 367 366 362 359 358 359 359 360 360 360 360 360 361 362 364 360 356 354 353 353 351 350
352 355 358 359 361 359 359 358 359 362 360 360 361 357 356 355 355 361 359 359 357 356 355 355 356 354 351 351 349 346 345 345 345 344 344 342 340 335 341 342 336 339 343 344 342 344 345 345 346 346 347 348 351 353 355 357 357 360 365 364 360 363 364 365 366 362 359 357 357 358 358 358 358 359 359 359 361 363 360 356 354 354 353 352 352
352 354 357 359 360 360 361 359 360 360 361 359 360 361 360 355 356 357 358 357 358 358 355 356 356 355 354 351 350 348 346 351 347 348 345 344 339 339 338 340 343 340 343 338 342 341 343 346 347 347 347 348 349 354 358 358 356 361 364 361 357 358 360 362 363 362 361 358 356 357 357 358 358 358 359 359 361 364 360 357 355 354 353 353 352
353 355 358 357 358 359 359 359 359 360 362 359 362 362 364 361 361 358 359 358 357 359 358 358 358 355 353 352 353 352 350 350 347 349 347 346 342 342 341 337 336 338 342 342 341 341 341 344 347 346 347 351 355 358 358 357 359 362 364 356 355 355 356 358 359 360 359 357 357 357 356 357 357 358 358 359 360 364 361 357 356 355 354 353 352
356 356 356 356 356 357 360 360 359 361 363 360 358 360 360 358 356 358 355 363 356 355 356 357 357 357 355 352 350 350 351 352 351 351 348 349 349 348 347 341 335 332 335 336 338 342 346 343 346 348 348 355 359 356 358 359 354 361 362 354 353 352 354 355 356 356 355 353 354 354 354 355 355 356 357 359 361 363 362 359 357 355 354 352 351
355 358 355 356 356 357 359 360 359 360 362 362 360 359 358 359 359 357 358 360 358 357 359 359 358 356 352 352 350 350 354 353 352 352 351 351 351 351 350 346 341 336 333 332 332 338 344 350 345 345 355 355 353 355 355 354 356 361 356 354 352 352 351 351 354 353 353 350 350 351 351 353 353 354 356 359 361 363 363 360 358 357 355 352 351
357 357 356 356 356 363 358 360 360 359 361 361 361 359 360 358 358 357 359 359 358 358 361 360 356 353 354 351 351 352 354 352 354 353 351 349 348 351 348 350 346 339 336 334 333 339 344 350 350 347 350 351 355 355 356 355 360 360 356 354 353 353 351 349 352 351 350 347 347 347 349 350 351 351 353 356 359 362 363 361 359 357 355 353 352
357 355 354 354 355 358 358 358 360 360 360 360 360 358 360 359 359 358 359 358 357 356 356 359 357 356 354 354 354 355 357 354 353 350 349 348 348 348 346 350 355 346 342 337 333 339 350 346 350 355 352 351 356 357 357 357 359 358 356 355 355 357 353 352 351 349 346 344 343 344 345 346 347 347 349 352 358 361 363 361 359 358 356 354 352
355 354 353 353 354 356 358 358 360 361 359 359 360 359 359 359 359 358 358 357 357 355 357 360 361 356 355 353 353 353 354 351 350 349 348 350 349 348 348 348 349 354 347 342 338 339 346 350 350 353 356 353 355 354 354 354 357 359 356 356 358 356 352 351 350 348 345 344 342 341 341 343 343 345 348 351 356 360 363 362 360 359 357 354 353
355 353 353 353 354 355 357 358 359 359 359 359 360 359 358 358 358 358 357 357 356 357 360 358 358 354 353 351 350 352 353 350 349 350 348 350 350 350 349 347 348 351 351 346 342 343 346 351 353 355 355 357 353 356 354 353 354 356 358 357 357 353 351 349 347 345 343 342 340 339 339 339 340 343 347 350 353 358 362 362 360 358 356 355 353
354 353 353 353 353 355 355 356 357 358 358 358 358 358 358 357 357 361 356 352 351 352 353 354 354 356 353 350 350 351 352 350 351 351 350 351 351 350 347 348 346 348 351 351 346 344 341 345 347 351 353 357 351 353 351 353 353 356 354 355 356 355 352 349 345 343 343 342 340 339 339 337 337 340 344 347 351 353 357 357 354 353 355 355 351
352 353 353 353 354 353 354 355 354 355 356 357 357 356 357 357 356 358 356 352 351 350 352 352 354 353 353 353 352 353 358 353 353 354 354 351 352 348 348 349 346 346 349 350 345 342 341 342 346 348 348 350 350 350 352 354 354 354 352 354 357 355 358 349 346 344 341 341 339 338 337 337 337 338 340 341 347 348 350 350 346 347 352 349 343
350 353 354 353 355 353 354 355 354 355 355 355 356 356 356 357 357 355 353 352 352 352 352 354 355 353 352 350 351 353 353 351 350 351 352 350 348 348 350 349 348 347 348 349 349 343 341 341 342 345 347 346 347 351 353 354 353 353 354 356 357 353 352 352 346 344 342 341 340 338 337 335 335 335 335 336 335 334 336 339 341 342 342 343 341
350 351 353 353 355 353 349 345 344 343 344 345 349 352 356 357 357 355 353 351 351 351 352 353 361 352 351 351 350 351 352 349 349 351 353 353 352 351 350 349 350 350 352 350 349 347 343 342 342 343 345 347 348 350 353 352 353 353 354 353 353 353 351 353 347 344 342 340 339 337 335 335 335 334 333 332 331 330 331 332 333 335 338 338 336
351 351 350 349 347 345 345 346 347 346 347 348 347 347 346 347 352 355 355 353 353 353 354 355 356 356 353 352 352 352 351 350 350 351 351 351 353 351 348 348 350 350 347 348 350 347 344 343 342 342 342 346 346 348 350 351 352 351 353 352 349 352 350 349 349 344 343 341 338 335 334 334 333 332 334 332 330 329 329 329 329 329 330 331 331
349 354 350 348 349 348 347 350 350 350 350 351 350 350 350 351 352 354 355 355 355 355 355 356 356 356 356 356 355 354 353 353 352 351 351 351 355 352 352 352 352 351 350 349 349 349 347 345 345 345 346 348 348 348 352 354 354 354 351 348 348 346 350 349 348 351 343 341 340 338 336 334 333 332 329 328 329 329 329 328 327 327 327 326 326
350 350 351 349 352 349 349 350 352 352 351 352 352 350 351 355 354 352 353 353 353 354 356 356 355 355 355 356 356 354 354 353 353 352 353 353 353 350 352 352 352 352 351 350 350 349 348 348 348 348 345 347 348 351 354 351 349 348 349 348 346 346 347 347 349 348 351 343 338 336 337 336 334 331 330 330 329 329 328 329 333 335 330 326 326
351 349 351 350 350 351 351 352 353 354 353 355 355 354 352 354 354 355 354 354 353 354 355 355 354 354 354 354 355 354 363 368 368 364 362 360 353 349 350 350 351 350 349 350 349 348 348 346 347 348 347 346 346 346 347 345 345 347 346 346 345 347 347 348 350 352 351 349 346 337 333 332 330 330 330 330 330 331 330 331 332 332 330 325 327
348 348 349 350 350 349 349 350 352 353 350 347 348 349 358 358 355 357 357 355 355 355 355 354 355 354 353 355 366 368 366 365 363 359 355 355 356 354 351 350 350 349 350 351 350 350 348 346 346 346 345 346 346 346 345 346 349 349 348 347 346 346 345 345 346 348 354 352 345 336 334 333 331 330 330 328 331 335 330 329 328 329 327 325 326
346 349 349 347 348 348 349 349 348 345 342 340 339 334 338 350 352 350 350 351 352 352 353 352 350 352 354 356 356 357 352 349 348 350 349 348 348 350 352 353 353 350 349 349 348 349 348 347 346 345 344 344 346 346 346 347 346 345 345 346 346 345 344 342 341 345 355 351 346 342 338 334 332 329 331 332 331 328 328 328 330 329 326 326 326
348 349 347 347 347 347 348 347 342 338 334 334 328 331 336 341 352 351 351 352 351 351 352 351 352 353 353 354 352 350 348 345 338 335 338 341 343 346 348 348 348 349 350 348 346 345 346 345 345 346 345 345 346 346 346 345 345 345 346 346 343 342 340 340 341 341 346 356 347 345 345 339 334 333 333 331 328 327 327 328 328 326 325 325 326
348 347 347 347 346 347 346 341 337 334 327 328 326 329 331 332 340 354 352 351 349 348 349 351 351 351 351 347 341 335 336 340 337 332 330 330 339 343 343 344 344 348 341 341 344 342 343 342 340 341 342 341 340 343 346 347 348 345 347 346 345 343 343 342 343 344 347 353 346 344 342 341 335 338 330 330 328 328 327 327 328 327 326 325 324
346 346 347 346 346 345 341 337 331 325 324 326 323 325 326 328 332 343 349 351 349 348 347 347 347 347 348 345 334 326 324 326 329 329 329 327 329 333 334 335 335 342 341 338 338 338 339 336 337 336 339 341 339 341 344 346 344 343 343 344 347 345 344 343 346 347 348 350 344 343 341 343 341 334 328 327 328 327 328 326 326 326 325 324 323
345 345 345 345 345 343 336 329 324 320 319 321 320 323 322 323 327 342 347 351 348 347 346 346 347 347 343 334 327 322 323 322 330 329 326 327 330 332 332 333 334 337 335 332 331 333 335 333 335 337 338 339 339 340 341 343 344 344 344 344 345 345 346 347 345 345 345 348 346 344 336 341 339 332 329 327 328 326 325 323 324 325 325 323 323
345 345 345 346 342 332 325 320 318 315 316 318 319 321 323 325 335 348 347 346 345 347 349 349 347 339 331 325 323 322 322 320 324 325 327 333 330 330 331 332 333 336 333 336 330 333 336 332 333 336 337 338 339 340 341 339 337 338 342 344 344 344 342 340 338 340 340 345 348 342 337 338 340 335 334 331 327 325 327 326 325 326 325 324 323
343 343 340 332 325 321 320 316 313 313 315 317 316 317 318 322 333 331 333 334 338 342 343 341 336 332 328 325 323 321 320 321 320 319 326 333 327 329 329 330 331 330 329 330 332 333 331 329 329 332 332 331 331 331 331 333 338 339 339 338 338 342 339 336 337 336 337 343 346 345 341 338 341 337 331 332 329 328 328 330 330 325 324 323 322
341 337 329 323 321 322 319 317 316 315 316 317 314 313 314 318 326 322 325 329 333 337 335 335 335 334 335 337 332 323 322 320 317 318 323 329 325 327 328 327 326 325 326 326 327 330 333 334 335 334 335 336 339 339 339 338 338 341 337 335 340 341 337 337 335 337 338 340 342 345 339 337 341 340 329 331 331 329 326 328 328 326 322 321 319
335 330 328 324 323 323 323 323 327 319 318 319 314 313 313 314 319 317 320 325 328 332 333 329 326 325 327 334 337 332 326 321 315 316 320 325 321 323 326 324 324 324 324 323 325 329 332 332 334 338 340 341 343 342 343 346 347 348 343 340 341 339 335 336 336 336 335 337 338 341 334 335 336 336 331 325 324 330 327 327 328 325 325 327 325
Wind_Speed
3 3 2 3 3 3 3 3 2 4 3 4 4 5 5 4 5 5 5 5 6 6 5 5 4 2 5 5 5 5 5 4 4 4 3 3 4 6 12 12 11 12 11 12 12 12 13 12 13 13 13 13 14 14 14 14 14 14 14 14 14 14 14 14 14 15 14 14 14 14 14 15 15 15 15 16 18 18 19 19 19 19 18 17 18
4 3 3 3 3 2 3 4 3 4 4 4 4 4 5 5 5 4 4 3 4 2 3 4 4 6 6 6 6 6 5 5 5 5 5 5 5 5 12 12 13 12 13 13 13 13 13 13 13 13 13 14 14 14 15 14 14 14 14 14 14 14 14 14 14 14 13 13 13 12 13 14 14 14 14 15 15 17 18 18 18 18 17 17 17
4 4 3 3 2 2 3 3 4 5 3 5 5 4 5 5 5 5 3 4 3 0 4 5 5 4 4 5 6 6 5 5 5 5 6 6 6 5 7 14 14 14 14 14 13 13 14 14 14 14 14 14 14 15 15 15 14 14 14 13 13 13 12 12 13 13 13 12 12 12 12 12 12 12 12 13 14 15 16 17 16 16 16 17 17
4 3 3 3 3 2 3 2 5 4 3 4 5 3 2 3 3 1 2 2 2 0 5 4 5 5 4 5 5 6 6 6 6 5 5 5 5 5 5 7 13 14 14 14 14 14 14 14 14 14 15 15 15 15 15 15 15 14 14 13 13 12 12 11 12 13 12 11 11 11 11 11 11 11 12 12 13 13 14 15 14 15 15 14 14
3 3 2 3 2 3 3 3 5 4 4 4 2 2 2 3 4 3 1 3 2 3 4 5 5 5 4 4 5 5 6 6 5 5 5 5 5 5 5 5 5 11 13 13 14 14 14 14 14 14 14 14 14 15 15 14 14 14 14 14 12 12 12 12 12 12 12 11 10 10 10 10 10 10 10 11 11 12 12 12 12 12 12 11 11
4 3 2 2 2 2 3 4 4 4 4 3 1 1 2 3 3 4 5 2 1 3 3 5 4 4 4 4 5 5 5 5 5 6 5 5 6 5 6 5 6 5 6 12 14 14 14 14 14 13 13 13 14 14 14 14 14 14 13 12 11 11 12 12 12 11 10 10 10 10 10 10 9 9 10 10 10 10 10 10 10 10 8 8 8
3 4 2 2 1 2 3 4 4 2 3 1 2 2 3 3 4 5 3 3 5 3 2 7 4 5 5 5 6 5 4 6 5 4 5 5 5 6 6 6 6 5 6 6 9 14 14 13 13 13 13 13 13 13 13 13 14 13 12 11 10 10 10 11 10 10 9 9 9 9 9 9 9 9 10 10 9 8 8 7 7 5 6 5 5
3 3 3 2 1 2 3 3 3 3 1 2 3 4 3 4 2 2 5 4 3 4 3 1 2 5 5 3 1 3 6 4 6 6 6 5 6 5 6 6 5 6 6 6 6 7 12 13 12 12 12 12 12 12 12 13 12 12 10 10 9 9 9 9 9 8 9 9 9 9 8 8 9 9 10 9 7 6 5 3 2 2 2 3 3
2 2 2 1 1 3 3 2 2 1 1 2 3 2 3 3 4 1 1 2 3 3 3 3 1 1 2 2 6 6 6 6 6 6 5 6 6 5 4 5 5 7 6 6 6 6 7 11 11 10 11 11 12 11 12 11 11 10 9 9 8 7 7 6 7 8 8 9 9 9 9 9 9 9 9 8 7 4 2 3 2 3 3 3 1
2 2 1 1 2 2 2 2 2 1 1 2 2 0 1 2 4 3 4 3 3 4 3 2 1 1 2 2 3 4 6 6 6 7 7 6 4 4 5 5 5 6 6 4 4 5 6 8 10 11 12 11 10 11 9 8 10 9 8 8 7 5 5 5 7 7 8 8 9 9 8 9 9 8 8 8 6 2 3 4 4 4 5 2 2
3 2 2 1 0 0 1 1 1 1 0 2 3 3 2 2 3 3 3 2 2 3 2 2 1 2 1 0 2 2 1 3 3 2 1 3 4 6 6 7 6 5 5 3 5 6 6 5 3 4 6 9 9 10 8 7 9 8 7 7 3 1 3 5 6 6 7 8 8 8 8 8 8 8 7 7 6 2 4 4 4 7 4 3 2
2 1 1 0 1 1 2 2 2 1 1 0 2 3 3 4 3 3 4 4 3 4 3 2 3 3 3 2 1 2 2 2 2 2 2 2 1 1 3 2 2 2 2 2 2 3 2 2 2 3 3 4 6 6 7 7 7 7 7 4 1 1 3 6 6 5 6 7 7 8 7 7 8 8 8 7 5 5 4 4 7 6 3 3 2
1 1 0 1 2 1 2 2 1 0 0 1 2 3 1 1 2 2 3 4 4 4 3 4 4 2 3 4 4 4 3 3 1 1 1 2 4 2 3 1 2 2 3 3 3 1 2 3 3 1 2 3 5 6 6 5 6 7 6 1 1 1 3 5 5 4 6 7 7 7 7 7 8 8 8 8 4 5 4 5 9 5 4 4 2
2 1 0 1 2 2 2 1 1 1 0 1 2 2 3 4 3 3 2 2 3 4 4 1 4 2 1 1 5 5 3 3 4 3 2 2 2 4 4 3 2 0 1 1 3 3 2 2 2 3 2 2 3 2 3 3 4 6 3 2 1 1 4 4 4 5 6 7 8 9 8 8 8 8 7 8 3 5 4 6 9 5 5 4 5
2 1 1 1 1 2 1 0 0 0 2 3 3 4 3 4 4 3 3 2 1 2 5 2 2 1 1 2 1 2 3 4 2 3 3 3 2 2 1 2 2 3 2 3 3 2 1 1 2 3 3 3 3 4 3 3 4 6 3 2 1 3 3 4 4 5 6 8 9 9 9 8 8 8 6 7 5 5 4 8 7 5 5 5 6
2 2 1 1 1 2 1 1 1 1 2 1 2 3 3 3 3 3 2 3 3 3 3 3 2 2 2 1 0 1 1 1 3 5 2 2 3 3 2 3 2 2 2 3 3 3 3 2 2 2 3 2 3 3 3 3 4 4 3 2 1 1 2 4 5 6 7 8 9 9 8 8 8 7 6 6 6 5 7 8 7 6 5 7 7
3 2 2 2 2 1 1 0 0 0 1 0 1 0 1 1 3 3 2 1 2 1 2 3 3 0 3 1 1 2 1 3 2 4 3 3 2 3 3 3 3 2 3 4 3 3 3 3 3 3 3 3 3 3 3 3 4 1 1 2 1 1 1 4 5 6 7 8 8 8 8 8 8 7 6 6 6 6 8 8 7 7 7 7 7
3 3 3 2 2 1 1 0 0 0 0 1 1 1 1 2 2 1 1 0 2 3 3 3 2 3 2 2 3 1 1 2 2 3 5 2 2 2 2 2 2 3 2 2 3 5 3 4 3 4 3 3 3 3 3 3 3 3 2 2 1 1 2 3 4 5 6 7 8 8 8 8 7 7 5 5 7 7 8 7 7 7 7 7 7
3 3 3 3 2 2 2 1 1 1 0 1 1 1 1 0 1 2 1 1 2 2 2 2 2 2 2 0 2 1 1 1 1 0 4 5 3 3 4 3 2 3 4 3 4 5 5 3 4 4 4 4 4 3 4 4 5 5 5 4 3 2 3 4 3 4 5 7 7 8 9 8 7 6 5 5 8 8 8 8 7 8 7 7 7
4 3 3 3 3 2 2 1 2 1 1 2 3 2 1 1 0 1 1 0 1 2 1 1 2 3 1 1 0 1 1 1 2 1 1 2 6 4 3 4 5 3 3 5 5 4 5 5 4 4 5 4 3 3 4 5 4 4 4 6 4 2 4 3 1 2 4 6 7 8 9 8 7 6 5 4 9 9 8 8 7 8 8 7 7
3 3 3 3 3 2 2 1 2 1 1 1 2 2 2 1 0 0 0 0 0 1 1 1 0 1 3 1 2 0 0 1 0 1 2 1 5 2 5 4 3 3 3 3 4 2 3 5 5 5 4 4 4 3 4 5 5 4 5 7 4 3 6 2 1 2 3 6 7 8 9 8 7 6 5 3 8 9 9 8 8 7 8 8 7
3 3 3 3 3 3 2 3 3 1 1 3 2 2 2 1 1 1 1 1 0 1 1 1 1 2 2 2 0 0 0 0 1 2 1 2 4 4 4 4 6 5 4 5 6 5 5 5 5 4 4 4 5 4 4 5 4 4 5 7 3 4 6 3 1 2 2 6 6 8 9 9 7 6 5 4 6 9 8 8 7 8 8 9 7
4 3 4 3 3 3 3 3 2 2 2 3 3 3 3 2 2 1 2 2 2 1 2 2 1 2 2 2 4 4 4 2 3 3 2 2 1 4 4 3 3 6 5 4 6 6 4 4 3 4 4 5 5 5 5 5 4 5 10 8 5 5 6 4 0 2 2 6 7 6 8 9 8 6 5 3 4 10 8 8 8 7 8 8 8
3 3 4 4 3 4 3 3 3 3 3 3 2 3 3 2 2 2 2 2 1 0 1 3 3 3 3 2 4 4 3 4 4 3 3 4 3 4 5 3 2 4 5 6 4 3 5 5 4 3 4 4 5 4 5 5 5 8 7 6 6 6 6 4 0 2 2 6 7 6 8 9 8 6 5 3 3 10 8 8 7 7 8 8 8
5 4 5 5 4 4 4 4 3 3 3 3 3 3 3 2 2 2 2 2 2 2 2 3 3 3 5 3 3 3 5 5 4 4 3 3 2 2 3 2 3 4 2 2 3 5 4 5 5 4 4 4 5 5 6 5 4 7 8 3 6 7 7 4 1 1 1 5 8 7 8 9 8 6 4 2 2 10 10 8 7 7 8 8 9
6 6 6 6 5 5 5 5 5 4 3 3 3 2 2 3 3 2 2 3 2 3 3 3 3 4 3 5 5 5 4 2 0 1 3 2 3 3 3 1 2 3 2 1 2 3 4 4 3 4 4 4 5 5 5 4 5 7 8 5 5 7 7 3 2 2 2 5 7 7 8 9 8 6 4 1 3 10 11 9 8 7 8 8 8
6 7 6 5 6 5 5 5 5 4 3 3 3 3 3 3 3 3 2 2 3 3 4 4 4 4 4 3 5 3 2 2 1 1 2 2 4 4 1 4 4 2 1 1 1 2 6 4 4 3 3 4 5 4 3 3 5 7 9 5 5 7 5 2 1 2 3 5 6 6 8 9 8 6 4 1 3 9 12 10 9 8 8 8 8
5 5 6 6 6 6 6 6 5 5 4 4 4 3 3 3 3 2 3 2 3 3 4 3 4 4 3 3 2 4 2 1 1 1 1 2 1 1 1 1 2 5 3 2 1 3 2 3 2 2 3 4 4 2 3 4 4 6 7 5 5 4 4 4 1 1 3 5 5 5 8 9 8 6 3 0 6 10 11 10 10 8 9 9 8
5 5 5 6 6 7 7 7 6 5 5 5 5 4 4 3 3 3 3 3 2 3 2 3 3 3 3 2 3 3 3 0 2 2 3 1 1 1 2 2 2 1 2 2 3 1 3 0 0 2 3 2 4 4 4 4 4 5 4 4 5 4 4 5 2 1 2 4 4 6 7 8 8 6 4 1 5 10 11 10 10 10 9 9 9
6 5 5 6 6 7 7 7 6 5 6 6 5 5 4 4 4 4 4 3 4 3 3 3 4 3 3 4 3 4 2 0 1 0 1 2 3 3 1 0 2 4 3 2 4 3 3 3 1 2 2 4 3 4 3 4 6 6 4 5 5 4 5 5 3 2 2 3 4 6 7 7 7 6 5 3 1 5 11 11 10 10 9 9 9
6 5 4 5 6 7 6 6 6 6 6 6 5 5 4 4 4 5 4 3 4 4 3 3 3 2 2 2 2 1 1 1 0 2 2 1 1 0 0 0 3 3 4 3 1 4 2 2 3 2 2 3 3 4 5 4 5 6 5 5 4 6 3 3 4 2 1 1 4 5 6 6 6 6 6 5 2 3 8 10 11 10 10 9 9
7 6 5 5 7 7 7 6 6 6 6 6 5 5 4 5 5 5 4 3 3 4 3 2 2 2 2 2 2 2 1 1 3 2 2 3 2 2 1 2 2 3 3 3 4 7 3 3 4 5 4 3 5 6 6 5 4 5 4 5 4 2 2 1 3 3 2 1 3 4 4 5 5 5 5 4 2 4 9 12 11 11 10 10 9
7 7 6 6 7 8 8 7 6 6 6 6 5 5 5 5 5 5 3 2 3 1 1 1 1 2 1 0 1 2 1 0 0 1 1 2 2 1 1 1 3 2 4 4 4 6 4 3 2 3 2 3 4 1 5 5 6 6 6 5 4 1 2 2 2 4 3 2 4 3 4 3 3 4 4 4 4 0 7 11 10 9 9 10 10
7 8 7 6 6 8 8 7 7 6 6 6 6 4 5 5 5 4 4 3 3 3 1 1 0 0 1 1 2 2 2 1 1 1 3 2 3 3 2 2 3 3 2 3 4 3 6 4 4 3 3 0 3 2 3 6 7 6 7 6 5 1 2 3 3 3 5 3 4 1 3 2 3 3 3 3 3 2 3 9 8 8 8 9 8
6 8 8 8 7 7 8 7 6 5 6 6 5 5 4 5 5 4 4 4 3 3 3 2 2 1 1 1 2 2 2 2 2 2 1 3 2 2 4 2 3 4 2 3 2 3 4 5 3 3 2 2 2 5 5 4 4 5 5 5 4 3 0 2 2 2 4 4 4 1 2 1 2 2 3 3 3 3 2 8 8 8 7 8 8
7 7 9 9 7 6 7 8 4 3 3 4 5 5 5 5 5 5 4 4 4 3 3 3 3 3 2 2 4 3 2 2 3 3 3 2 2 3 3 3 3 4 2 2 3 3 2 3 3 2 2 3 4 4 5 5 5 5 4 4 3 2 3 2 2 2 3 4 4 1 1 1 2 2 3 3 2 3 3 5 7 8 8 8 8
7 6 7 7 3 1 10 15 13 10 10 12 12 8 3 3 6 5 4 4 3 4 4 4 4 3 3 3 4 3 3 3 3 3 3 3 3 3 4 4 4 3 2 2 3 3 3 5 5 2 2 2 3 4 3 4 5 3 3 3 2 2 2 1 3 2 3 2 2 1 2 0 2 2 2 3 3 3 3 4 5 6 7 8 8
7 2 5 12 13 9 4 8 7 8 8 9 8 5 1 7 7 4 4 4 4 4 3 3 3 3 3 4 4 3 3 3 4 3 3 3 2 3 3 4 4 3 4 3 2 3 3 5 4 5 2 3 4 4 3 2 4 5 5 4 3 1 1 2 1 2 3 3 2 2 2 1 1 2 3 4 3 2 3 4 4 4 4 5 7
4 7 9 8 8 9 7 5 6 4 2 1 2 4 4 6 9 4 4 3 3 3 3 4 4 3 4 5 4 3 4 4 4 4 4 3 2 2 2 3 4 4 5 4 3 3 4 5 4 4 5 4 3 6 4 2 3 4 4 6 5 2 1 1 3 2 3 4 5 5 4 3 3 2 1 2 2 2 2 3 4 4 5 6 6
7 7 8 9 7 7 9 7 5 6 5 4 3 5 7 7 5 6 4 4 3 4 4 4 3 4 4 4 4 3 3 5 4 2 2 2 2 2 3 3 4 4 3 4 4 5 5 5 4 6 4 4 5 4 4 3 4 3 3 4 5 5 5 2 3 4 3 5 5 4 3 3 1 0 1 1 2 1 1 2 4 5 4 5 6
6 7 7 8 9 7 6 7 6 4 5 6 4 4 6 7 7 6 5 5 5 5 4 4 3 3 3 3 4 2 0 7 11 9 7 5 3 3 3 3 3 3 4 4 4 4 5 5 6 5 5 5 5 5 6 4 5 7 3 1 3 4 4 5 5 5 5 4 3 5 4 5 4 4 3 3 2 3 3 3 3 6 7 5 6
7 6 6 6 9 9 8 7 6 6 6 3 2 4 5 5 5 4 5 6 6 5 4 4 2 2 1 2 5 11 11 11 11 10 9 8 7 4 2 3 3 3 3 4 4 4 5 5 5 5 6 6 5 4 5 4 5 4 4 3 5 5 4 5 5 5 2 3 3 5 5 5 4 4 4 4 4 3 2 3 4 4 5 6 6
6 6 7 8 8 8 9 8 7 6 5 2 2 5 3 2 2 3 4 4 4 4 5 4 4 4 4 4 5 7 7 7 6 8 7 6 5 5 5 6 6 4 4 5 4 4 4 5 5 5 5 6 5 4 5 5 3 3 3 4 5 4 5 6 7 5 2 4 2 3 5 6 6 6 5 5 4 4 3 4 4 5 5 6 7
6 6 6 6 6 6 6 6 6 5 4 2 2 2 2 2 4 3 3 3 3 3 4 5 4 4 5 5 4 4 4 4 4 4 5 6 6 6 7 7 8 9 8 4 4 5 4 5 5 5 6 6 6 5 5 5 6 5 5 5 3 3 6 7 5 5 2 1 1 2 6 5 7 6 5 5 5 4 4 3 3 3 4 5 6
8 8 7 7 6 5 6 6 5 4 3 2 2 1 2 1 3 3 3 3 5 4 5 5 5 4 5 5 5 4 4 8 5 3 3 4 7 9 9 9 9 9 11 12 11 7 6 6 6 6 6 6 7 6 6 7 7 8 7 6 6 5 5 6 7 6 6 1 3 6 6 4 7 7 6 5 5 2 1 0 2 2 3 4 3
8 8 7 7 6 7 7 7 5 3 2 3 3 3 3 3 3 3 3 4 4 5 5 5 4 4 5 5 5 3 3 3 3 4 4 4 5 5 5 5 5 6 9 11 10 10 6 3 3 5 6 5 6 7 8 7 7 7 7 9 7 7 6 6 5 6 6 4 6 5 5 2 2 3 6 4 3 3 1 1 1 3 3 3 3
9 9 9 8 6 6 6 6 5 4 3 6 5 5 5 5 4 4 1 3 4 4 4 4 5 6 6 6 5 4 2 2 4 6 4 5 4 4 4 4 6 3 5 6 7 5 5 4 4 4 6 6 6 7 7 6 6 6 7 9 9 8 6 6 6 7 8 5 7 5 5 2 3 6 6 3 4 3 2 1 2 3 3 3 3
3 4 4 3 5 5 6 6 6 6 6 12 8 6 5 4 4 2 4 5 5 4 5 6 7 6 6 5 4 3 2 3 7 9 7 4 3 4 5 5 5 5 5 5 5 6 5 4 4 4 5 7 8 8 8 6 6 6 6 6 5 5 7 6 6 4 4 2 2 3 4 3 2 5 2 0 4 3 2 1 2 6 6 5 4
7 7 7 7 7 7 7 6 7 6 7 12 13 13 12 11 5 4 4 5 5 7 6 7 7 6 5 4 3 3 3 4 7 8 9 7 5 6 5 5 5 5 6 6 9 9 10 10 10 10 10 11 11 12 12 10 7 5 4 5 5 4 6 6 5 4 4 2 1 1 0 3 1 2 3 1 2 2 2 3 3 1 4 6 4
8 9 8 8 8 7 7 7 6 8 8 12 17 17 17 15 10 6 5 4 6 7 7 6 5 5 5 10 5 4 5 5 6 8 9 6 6 5 5 5 5 6 7 7 7 7 9 10 10 11 10 11 12 12 11 11 11 4 2 4 5 5 5 5 6 5 5 2 4 6 0 2 2 1 3 2 1 1 2 2 2 2 3 3 2
9 9 8 8 8 8 8 8 13 10 8 10 14 16 18 17 12 8 6 6 5 5 6 6 5 5 5 6 9 7 6 6 8 8 9 7 6 5 4 4 5 7 7 7 7 8 9 9 9 9 9 11 9 8 10 16 13 8 2 4 4 5 6 6 6 6 5 2 6 7 3 3 1 1 3 3 2 2 4 4 3 3 2 1 1
Wind_Direction
194 213 187 210 224 221 219 242 243 247 250 268 251 264 267 261 262 264 239 234 243 246 229 231 223 175 162 159 157 157 157 153 151 151 156 179 207 212 205 208 212 216 221 225 228 232 237 241 244 247 252 256 259 262 263 264 266 267 268 268 269 270 270 271 272 272 272 271 271 270 269 268 268 269 270 271 273 274 271 268 266 264 263 260 260
197 208 176 207 209 221 231 251 265 266 274 279 270 255 257 269 262 251 268 263 254 234 177 182 173 171 164 150 155 158 159 160 159 165 174 187 205 218 212 210 214 218 223 226 231 234 237 239 243 246 249 252 255 258 261 263 265 267 268 269 271 272 274 275 276 278 277 276 273 272 270 270 272 276 277 277 275 275 275 274 271 266 264 260 259
183 180 183 182 207 236 255 269 282 277 269 266 269 246 242 230 225 217 194 189 206 294 156 180 161 148 159 150 163 148 165 168 164 175 180 191 200 209 220 214 216 220 223 227 231 236 238 239 240 243 245 248 251 255 258 261 263 265 267 268 269 271 274 277 279 279 278 276 280 280 282 285 288 288 286 282 280 278 278 278 276 271 266 267 263
167 161 161 175 203 229 260 284 269 289 291 286 281 258 269 277 265 312 21 319 57 182 167 176 156 174 173 173 167 162 168 174 179 183 189 198 202 208 216 220 220 223 227 228 233 236 238 240 242 243 245 246 249 252 254 257 261 263 265 266 266 268 271 275 277 278 277 280 285 287 290 293 293 290 288 287 286 284 283 280 276 274 276 277 271
132 152 160 171 200 234 263 264 268 267 283 275 293 323 340 333 345 15 65 47 4 0 163 156 164 190 183 180 174 180 177 178 188 183 193 201 207 207 212 220 230 230 231 233 236 238 240 241 242 245 249 250 252 253 255 257 260 262 264 265 265 268 273 275 277 280 284 288 293 296 297 294 291 290 289 289 289 290 290 289 282 275 279 280 271
116 104 124 168 206 234 264 273 256 251 257 252 223 18 4 358 347 9 7 4 142 45 98 142 204 197 190 191 181 187 181 182 195 197 192 210 209 205 211 214 221 230 235 235 235 238 241 243 245 248 250 252 253 254 255 257 259 260 261 262 263 268 272 276 277 282 290 297 301 302 300 297 297 296 294 291 293 298 297 293 286 283 285 284 285
126 136 157 183 238 265 262 259 273 295 258 261 47 34 20 3 2 2 338 6 27 41 80 174 190 201 206 190 197 178 185 195 198 204 207 212 210 214 214 213 214 223 236 233 239 238 238 239 241 246 250 252 253 256 258 258 258 259 258 260 266 266 273 281 284 292 300 303 301 298 298 300 305 305 300 297 302 299 299 293 287 285 270 275 299
130 134 171 205 220 267 239 261 263 242 264 10 48 31 358 355 6 32 14 346 356 23 44 104 224 209 216 175 167 175 199 200 203 213 219 203 217 221 221 221 217 219 226 236 240 244 239 237 237 241 247 251 257 259 260 260 260 261 258 261 269 273 281 288 295 300 301 300 300 303 304 310 312 307 302 306 310 301 296 281 249 244 261 281 276
149 169 160 179 234 258 269 240 242 197 29 26 49 40 29 349 337 360 90 325 351 4 15 29 288 162 317 220 176 179 196 197 207 210 216 210 221 231 232 234 236 230 226 231 243 248 251 244 240 237 243 251 260 262 260 261 264 265 266 265 273 284 292 296 299 299 304 309 312 315 322 323 314 306 308 314 317 315 260 182 192 190 217 183 240
161 136 144 221 224 247 269 192 182 91 74 43 19 257 38 40 358 342 13 348 350 7 356 354 302 261 134 224 211 172 192 181 204 209 201 221 230 251 243 243 242 242 241 238 257 268 259 253 246 248 251 255 259 259 258 260 262 264 266 265 265 278 290 301 304 310 318 320 322 329 328 323 313 310 313 314 321 326 151 163 169 196 161 154 103
158 154 169 219 3 78 94 233 139 86 41 23 359 346 355 38 44 339 355 295 301 346 317 240 12 317 126 113 258 224 237 216 174 66 96 227 210 224 215 230 233 229 236 216 231 241 244 246 243 242 248 253 258 260 259 255 260 266 274 267 278 304 321 314 313 326 331 329 333 331 325 318 313 318 322 323 332 110 134 148 171 143 151 119 87
156 189 215 94 75 151 183 150 92 101 68 18 342 340 344 13 18 32 4 347 5 8 8 37 38 31 22 2 4 22 333 4 66 184 181 177 188 221 259 295 313 266 210 222 279 269 246 240 238 253 268 280 279 270 265 263 271 278 271 271 316 29 326 308 322 334 329 332 338 329 321 317 322 331 333 337 341 115 128 144 135 138 133 108 106
170 201 278 98 142 168 108 74 100 76 103 260 286 317 302 31 36 53 26 20 359 0 6 66 59 6 11 15 345 329 8 14 40 28 16 333 330 259 252 49 55 28 350 356 334 358 53 32 356 319 310 282 271 275 291 303 288 283 272 296 106 26 310 308 315 319 329 339 338 331 328 326 332 337 341 341 10 113 124 135 135 131 116 105 74
166 196 117 138 135 93 80 129 128 175 133 359 1 10 18 34 45 28 10 62 17 348 339 70 28 81 46 331 340 334 358 32 27 348 306 304 306 334 339 325 68 175 186 205 50 28 3 342 337 13 355 307 295 300 314 311 299 284 273 143 70 350 305 310 304 332 340 345 344 339 338 338 343 342 348 343 61 111 125 124 124 110 100 85 64
179 171 154 115 125 108 95 15 94 136 51 25 7 21 14 41 48 67 10 13 25 348 3 60 143 134 66 76 346 13 330 2 331 324 324 355 334 310 285 15 34 22 12 42 22 6 304 312 21 352 323 316 319 333 336 324 295 328 134 128 120 331 329 311 316 341 349 351 344 339 342 346 348 347 349 353 94 108 119 116 109 104 87 73 68
189 215 134 153 130 152 134 84 8 67 121 62 15 27 22 28 39 40 107 25 7 343 17 17 110 106 9 87 223 112 352 315 310 292 291 17 12 357 358 35 40 4 22 30 350 330 313 307 8 321 289 304 328 323 339 333 315 1 140 149 209 312 332 315 331 356 358 352 344 339 342 348 357 355 355 9 103 99 110 108 103 90 77 73 72
200 196 174 181 171 170 133 90 29 356 97 74 11 95 63 84 85 70 64 131 14 325 335 24 42 106 143 74 7 22 228 246 331 290 342 356 334 334 8 3 16 354 348 339 321 303 311 329 317 313 298 314 320 313 352 340 315 324 192 248 153 13 309 306 343 359 358 349 342 339 343 354 359 5 6 34 107 105 111 106 97 87 76 76 66
203 196 197 182 188 216 187 128 357 13 270 215 256 28 29 60 77 122 88 290 137 51 359 353 44 51 92 156 165 173 211 261 77 305 320 265 303 317 334 324 308 304 313 334 328 324 344 337 331 310 304 328 311 327 357 332 309 304 273 273 308 259 285 295 337 356 355 347 340 336 345 354 4 6 18 57 119 120 115 108 100 88 83 75 66
201 194 193 200 200 205 182 170 199 234 326 113 265 261 211 242 139 105 162 176 84 64 30 314 346 7 31 14 72 74 133 105 249 24 340 316 345 312 309 312 323 328 340 331 319 338 337 326 313 294 318 324 309 344 344 317 304 316 306 271 253 220 275 296 316 340 350 341 336 335 345 350 2 9 12 81 130 129 121 115 106 100 94 81 69
196 197 192 203 203 222 207 197 226 242 247 200 223 227 209 283 334 150 126 126 116 103 21 348 81 294 17 13 98 78 53 36 110 168 206 267 311 316 298 307 331 314 307 313 320 325 318 316 301 314 321 303 316 349 327 308 306 312 312 267 241 195 271 303 315 335 347 333 333 335 339 344 355 9 8 79 141 136 130 126 116 106 101 89 77
204 196 205 200 205 201 202 205 236 275 297 247 238 213 202 231 317 28 63 38 127 159 119 291 107 272 353 343 29 18 44 43 80 113 165 176 284 284 304 321 328 307 321 301 285 282 299 307 317 318 303 306 329 328 309 297 298 300 296 280 239 209 257 272 292 315 345 321 330 335 329 335 353 7 12 39 146 142 139 133 125 113 107 102 91
207 199 200 210 209 201 200 215 239 219 250 221 232 239 260 214 237 228 202 261 302 181 210 236 214 258 208 220 151 9 41 347 277 228 284 196 233 281 278 305 327 297 328 326 322 319 327 325 316 303 303 322 325 318 298 292 291 292 297 301 236 219 255 262 281 283 343 316 326 332 324 326 348 10 15 17 153 149 144 137 128 120 113 106 101
203 212 209 214 221 217 201 223 225 234 237 213 222 224 235 231 255 262 246 244 267 275 328 310 263 278 282 210 239 212 208 212 238 227 214 251 278 275 285 250 254 308 293 308 313 316 309 288 288 312 335 334 322 312 301 293 288 300 307 306 227 227 252 268 204 281 354 306 315 326 320 327 343 5 18 15 160 156 148 139 133 127 115 110 109
229 218 224 219 217 227 227 228 245 239 232 221 228 235 240 231 242 253 237 237 250 34 335 315 312 301 287 234 236 233 221 221 232 200 193 226 198 266 275 294 320 232 281 318 304 294 296 293 287 320 326 316 306 304 296 293 304 311 309 286 227 235 253 267 119 262 16 307 303 312 319 325 339 356 9 4 171 156 152 145 140 131 125 120 112
227 225 228 218 208 218 228 230 242 234 228 222 233 229 230 228 215 212 228 230 225 233 271 270 274 279 279 282 257 236 228 228 213 210 219 200 206 261 268 190 240 294 301 20 315 306 268 287 313 326 328 314 309 313 294 296 309 311 316 295 232 237 252 270 307 275 8 298 300 311 321 322 333 348 1 357 260 159 154 152 147 140 132 126 124
207 216 218 213 211 212 211 219 219 221 209 211 228 220 190 204 214 207 228 242 241 233 252 275 283 275 267 284 297 277 286 310 270 277 266 266 275 232 265 317 228 259 288 354 300 352 314 318 330 329 320 325 311 304 312 318 321 315 337 314 269 256 254 274 327 322 349 292 294 309 325 325 331 343 358 353 223 165 154 156 155 149 136 128 122
205 214 215 211 213 213 212 217 219 219 213 216 230 219 220 205 195 208 234 235 233 238 250 256 273 285 291 288 293 308 254 217 146 235 234 224 234 255 214 306 328 344 316 279 296 233 247 308 297 310 308 294 299 305 306 310 302 322 332 319 302 287 268 263 299 331 336 305 300 322 333 330 330 337 347 99 248 169 155 158 162 156 143 130 122
208 210 215 207 212 215 212 217 218 216 213 212 226 219 214 202 220 198 239 240 241 246 260 270 273 275 282 288 318 292 260 233 154 178 254 263 299 326 352 176 248 304 331 331 340 292 236 239 311 262 278 276 270 269 301 301 308 325 321 323 313 302 256 223 216 353 332 306 312 341 338 333 330 335 340 285 173 172 160 162 162 155 142 135 132
213 207 207 206 210 208 208 211 210 211 211 214 217 220 207 211 214 209 227 251 220 232 240 254 257 259 283 337 315 291 249 4 32 341 359 22 139 150 159 175 191 241 299 315 280 246 299 237 329 282 233 285 322 323 328 317 309 323 313 310 312 294 237 212 166 70 323 315 328 2 340 338 333 337 337 272 170 176 165 165 164 155 148 146 142
212 216 198 201 207 206 201 203 206 203 206 210 212 213 206 215 219 218 227 234 247 249 242 236 257 267 304 310 318 307 325 47 57 94 102 194 154 188 201 136 156 212 204 243 281 234 265 304 227 271 318 322 313 315 312 313 318 332 326 317 310 302 227 201 162 128 331 313 15 4 340 342 343 342 338 325 308 190 166 169 164 160 158 156 152
216 220 205 200 201 202 196 201 204 207 208 209 212 215 201 213 220 228 241 234 240 252 259 243 260 295 329 339 341 355 357 3 285 196 228 171 197 189 234 270 199 203 199 190 267 287 201 267 289 263 279 295 310 311 309 309 309 332 323 316 311 302 216 180 135 102 283 345 48 10 343 348 347 346 332 336 6 159 168 167 163 165 166 164 160
215 216 213 204 200 201 201 201 203 206 207 211 207 213 205 209 217 225 240 228 241 251 278 309 342 57 58 44 18 355 334 159 172 173 188 213 202 195 178 253 263 211 184 182 213 264 267 241 273 291 292 297 316 312 308 308 312 329 323 317 327 14 148 139 127 122 240 256 60 9 339 345 344 343 335 335 357 161 172 166 168 170 170 171 168
214 214 212 206 200 201 201 202 202 204 206 210 208 207 207 216 220 220 211 188 192 200 226 330 55 107 107 174 273 284 270 43 228 177 229 263 266 255 245 254 279 237 173 192 225 271 295 259 258 269 298 346 315 291 310 310 318 328 332 317 323 175 196 165 134 128 190 201 85 16 331 344 353 2 358 3 8 31 185 167 169 167 174 175 172
213 215 212 206 200 199 200 200 201 202 205 212 214 199 205 214 221 201 182 168 166 201 172 186 198 177 155 224 277 286 257 241 302 274 217 228 239 253 270 239 253 272 211 183 231 241 279 314 315 317 304 282 282 292 298 316 316 323 325 323 313 202 199 174 157 159 191 171 102 18 307 350 23 27 15 12 36 8 176 162 157 163 178 178 165
216 218 216 212 208 201 202 198 197 199 204 214 217 203 211 211 214 210 183 181 186 205 215 238 216 195 220 228 277 284 289 307 296 294 228 236 225 231 251 248 262 255 228 192 190 253 269 280 271 302 287 316 260 292 309 297 292 295 300 309 310 328 193 171 185 163 180 170 122 161 263 38 57 47 53 26 43 56 124 159 157 167 176 163 165
219 219 216 212 207 202 202 206 206 232 236 243 213 201 207 206 202 190 183 186 193 196 198 207 206 202 217 269 273 262 263 261 285 287 289 249 232 244 255 259 250 275 282 212 212 216 238 270 295 250 286 310 295 291 292 301 305 310 303 301 318 337 326 198 180 183 191 166 139 183 261 130 91 82 93 80 59 65 101 139 156 166 165 170 175
214 210 216 210 192 70 35 32 22 26 360 349 328 326 292 213 185 181 185 194 207 215 211 209 209 208 229 228 256 262 247 258 282 273 266 257 254 253 258 271 259 265 282 249 252 223 243 265 282 277 290 288 265 286 290 304 319 314 312 304 293 300 317 309 168 108 127 161 124 228 276 3 133 147 134 122 114 101 105 116 131 149 167 177 183
221 210 49 42 51 60 139 183 182 180 171 190 194 186 346 326 298 192 180 189 209 214 223 222 222 214 225 241 250 250 255 249 258 261 264 264 266 252 269 293 291 283 281 277 245 244 244 261 260 298 309 281 314 291 275 268 285 301 306 295 306 307 357 340 333 160 180 183 181 181 224 193 144 196 164 138 135 134 132 133 134 144 154 181 192
177 107 118 148 149 169 187 188 211 200 196 211 187 202 195 204 225 211 179 193 202 215 224 220 223 222 226 237 241 236 245 244 250 254 264 305 289 300 330 327 314 294 288 291 292 271 260 268 276 244 273 273 245 290 298 255 251 240 265 305 307 287 305 255 286 254 188 190 189 188 203 197 191 203 147 119 129 138 171 169 161 162 175 185 192
139 149 143 156 151 165 194 191 178 188 181 200 199 203 205 207 186 220 184 190 202 224 233 234 233 230 232 239 247 242 240 255 244 271 30 17 35 38 11 358 356 355 327 310 304 290 281 276 272 287 271 294 299 271 286 316 309 296 240 231 261 286 296 282 237 260 251 197 182 172 160 146 166 313 197 119 133 138 161 216 196 194 197 204 200
147 144 153 154 161 166 170 168 177 169 169 193 216 217 225 221 199 189 182 189 200 209 219 231 236 243 250 249 258 252 133 91 87 77 70 61 58 32 354 358 348 347 328 320 302 289 280 283 285 275 283 288 285 298 308 303 280 276 294 238 266 269 286 301 287 246 230 217 200 161 182 186 186 211 218 221 217 189 214 230 218 199 202 209 213
161 153 162 165 166 168 164 164 166 171 176 156 207 259 260 203 189 182 185 195 200 206 202 222 234 242 227 87 83 90 78 73 72 67 56 48 41 33 347 332 325 318 303 297 296 285 287 282 276 291 293 288 290 288 288 287 297 310 319 299 288 295 307 280 283 278 211 184 173 194 201 187 190 205 207 217 218 195 196 220 228 221 210 204 207
176 159 164 169 172 169 164 163 161 161 156 137 184 235 204 171 153 157 155 172 186 187 187 170 145 142 111 95 82 70 68 56 54 59 51 39 15 357 342 337 329 323 317 313 291 288 289 277 285 289 286 291 295 300 294 293 301 309 300 296 291 310 307 314 304 310 273 167 189 204 225 194 185 201 206 209 197 186 215 226 233 220 214 204 195
153 146 153 170 167 158 156 148 142 145 146 137 214 238 269 197 174 167 175 149 119 119 144 136 138 123 116 99 73 65 69 73 55 24 16 7 351 342 338 338 339 334 348 353 323 311 300 287 285 285 293 294 305 311 310 318 313 304 289 282 264 277 299 290 284 272 268 189 291 276 257 199 192 203 200 199 188 198 206 223 242 244 246 225 197
153 155 157 154 155 143 141 144 142 146 144 163 205 231 228 218 228 188 162 153 129 130 128 126 123 113 110 101 85 50 25 45 39 18 9 350 348 350 353 352 348 12 53 44 41 34 9 9 353 346 356 346 334 334 337 328 324 307 302 292 293 275 244 255 261 276 275 27 323 270 264 217 187 200 206 192 176 147 112 251 259 268 265 266 228
157 155 156 154 147 146 148 151 144 124 117 21 341 310 292 278 250 218 168 150 138 133 134 125 108 99 98 102 97 71 35 30 24 18 4 2 351 345 352 348 346 29 41 33 23 20 29 25 347 325 322 332 313 308 310 315 310 304 306 301 299 271 255 256 276 278 284 343 308 308 280 278 214 243 211 187 136 119 106 63 275 287 272 253 229
163 162 161 155 153 149 145 133 120 93 36 5 343 334 320 298 285 257 184 125 123 118 115 110 106 100 93 97 103 108 76 27 25 21 10 354 351 353 360 359 360 42 33 19 7 360 357 352 333 307 309 307 297 298 294 293 291 294 296 296 302 303 295 289 286 273 277 224 229 236 252 262 158 223 227 162 130 95 74 65 305 286 272 264 246
72 69 67 95 113 91 67 64 71 58 19 8 2 360 348 315 260 150 115 116 116 108 95 92 94 90 96 103 107 103 79 49 33 21 7 358 10 19 20 11 14 18 15 10 358 337 341 320 307 306 299 298 295 294 292 286 290 288 298 299 297 288 288 281 274 291 282 295 146 197 260 274 176 203 278 94 113 102 92 93 35 345 326 317 317
85 76 78 63 61 71 66 63 71 58 36 14 20 33 37 31 57 70 97 99 102 103 97 99 97 98 101 103 99 103 72 58 37 28 15 45 49 40 27 21 16 15 4 352 341 337 337 330 321 316 312 310 310 308 306 292 271 278 290 298 295 296 300 295 298 307 294 310 17 230 285 264 213 185 169 21 103 118 160 166 124 176 295 314 327
66 72 71 70 61 63 72 69 67 74 59 36 37 35 36 38 47 43 24 68 101 96 99 98 100 100 97 92 95 84 75 64 47 44 34 50 54 40 35 30 27 19 3 350 340 338 334 334 339 336 335 336 335 333 325 319 309 252 206 294 317 329 318 319 312 312 302 352 27 355 285 252 248 132 99 53 75 110 187 205 159 149 175 238 300
70 75 72 79 76 66 67 69 59 57 55 49 48 52 48 43 47 43 41 51 27 80 111 91 78 77 58 55 63 71 83 81 67 54 44 47 57 40 29 40 31 26 355 339 341 344 348 355 354 358 4 359 360 359 358 358 2 4 206 271 313 323 321 314 312 317 315 39 20 10 3 324 337 122 122 128 206 211 168 188 159 159 174 191 190